CZ-3B DEB, 40191

Orbit data source: Space-Track

CZ-3B DEB, 40191 is space debris in HEO originally from a launch on Mon, 19 Dec 2011 UTC launched from the Xichang Space Center, China (XSC). Debris objects in space refer to the collection of defunct objects orbiting the Earth. Examples of debris include non-operational satellites, rocket bodies, and fragments generated from explosions, collisions, or faulty payload assembly.

Loading next visibility...
Identifier
40191, 2011-077Q
Orbit
HEO
Country
Flag of CNCN / PRC
Related business
Manufacturer
CALT
Mission
Spacecraft
Bus & Motor
Unknown
Mass
Unknown
Launch date (UTC)
2011-12-19 (14 years ago)
Launch vehicle
Unknown
Launch site
Xichang Space Center, China (XSC)
Object type
Payload
Rocket body
Debris
Shape & HBR
Unknown shape, 0.2 m
Radar Cross Section
Medium (>0.1 m² and <1 m²)

Expand to show TLE details & history
Last TLE update: 6 days ago

TLE from 6 days ago
0 CZ-3B DEB
1 40191U 11077Q   25285.31939375 -.00000132  00000-0  47954-2 0  9991
2 40191  26.8440 321.0741 7424229  87.6180 347.0392  1.94977519 74954
Epoch: 2025-10-12T07:39Z
TLE epoch observation values (Epoch: 2025-10-12T07:39:55.619Z)
Latitude
-0.00006°
Longitude
-175.03419°
Altitude
5,361.722 km
Speed
7.292 km/s
True Right ascension
21h 24m 20s
True Declination
0° 00' 00"
Sunlit
Object was in daylight at epoch
Visualization orbit readout
Latitude
Unknown
Longitude
Unknown
Altitude
Unknown
Speed
Unknown
Apparent Right ascension
Unknown
Apparent Declination
Unknown
Sunlit
N/A
Visualization observer readout
Local Sidereal Time
01:11:10
Azimuth
Unknown
Elevation
Unknown
Doppler factor
Unknown
Orbital elements
Apogee altitude
40,787.561 km
Perigee altitude
594.225 km
Semi-major axis
27,069.03 km
Eccentricity
0.74242
Inclination
26.844°
RAAN
321.0741°
Arg. of periapsis
87.618°
True anomaly
272.06124°
Mean anomaly
347.0392°
Eccentric anomaly
319.30099°
Mean motion
0.48734 °/min
Orbital period
738.7 mins
BSTAR
0.0047954
Loading maneuver chart data...
Computing Atmospheric mass density...
Loading historical data...
Loading historical data...
Loading historical data...
Loading historical data...
Loading historical data...
Loading historical data...
Loading historical data...

Documentation

Showing up to 5 results
|